Overview Statistics Trail Chart Weather Telemetry Raw packets
 

This is the latest recevied weather packets stored in our database for station/object 4S6DRJ-13. If no packets are shown the sender has not sent any weather packets the latest 10 day(s).

<< 478 479 480 481 482 483 484 >>
Time Temp. Humidity Pressure Rain* Wind** Luminosity Snow
1787724028 29.44° C 77% 1011.2 hPa 0 mm 0.45 m/s, 325° 547 W/m² -
1787723967 29.44° C 77% 1011.2 hPa 0 mm 0.45 m/s, 256° 543 W/m² -
1787723906 29.44° C 77% 1011 hPa 0 mm 2.24 m/s, 262° 534 W/m² -
1787723846 29.44° C 76% 1011.3 hPa 0 mm 2.68 m/s, 257° 549 W/m² -
1787723784 29.44° C 76% 1011.1 hPa 0 mm 3.13 m/s, 239° 548 W/m² -
1787723662 30° C 76% 1011.3 hPa 0 mm 2.68 m/s, 249° 537 W/m² -
1787723601 30° C 76% 1011.4 hPa 0 mm 1.79 m/s, 226° 530 W/m² -
1787723541 30° C 76% 1011.4 hPa 0 mm 0.89 m/s, 219° 487 W/m² -
1787723479 30° C 77% 1011.4 hPa 0 mm 1.79 m/s, 161° 528 W/m² -
1787723418 30° C 76% 1011.1 hPa 0 mm 1.34 m/s, 233° 520 W/m² -
1787723357 30° C 76% 1011.4 hPa 0 mm 0.89 m/s, 229° 532 W/m² -
1787723296 30° C 77% 1011.2 hPa 0 mm 0.89 m/s, 191° 540 W/m² -
1787723235 30° C 76% 1011.3 hPa 0 mm 1.79 m/s, 287° 553 W/m² -
1787723174 30° C 75% 1011.3 hPa 0 mm 2.68 m/s, 274° 560 W/m² -
1787723113 30° C 76% 1011.4 hPa 0 mm 1.79 m/s, 194° 597 W/m² -
1787723052 30° C 76% 1011.3 hPa 0 mm 0.89 m/s, 211° 624 W/m² -
1787722991 30° C 75% 1011.1 hPa 0 mm 1.79 m/s, 222° 656 W/m² -
1787722930 30° C 74% 1011.4 hPa 0 mm 1.79 m/s, 282° 645 W/m² -
1787722869 30° C 75% 1011.6 hPa 0 mm 0.45 m/s, 316° 615 W/m² -
1787722808 30° C 74% 1011.4 hPa 0 mm 0.89 m/s, 325° 573 W/m² -
1787722747 30° C 75% 1011.5 hPa 0 mm 1.34 m/s, 171° 631 W/m² -
1787722686 30° C 75% 1011.3 hPa 0 mm 2.24 m/s, 252° 674 W/m² -
1787722625 30° C 75% 1011.4 hPa 0 mm 1.79 m/s, 122° 693 W/m² -
1787722564 30° C 75% 1011.5 hPa 0 mm 1.34 m/s, 350° 682 W/m² -
1787722504 30° C 75% 1011.5 hPa 0 mm 0.45 m/s, 274° 731 W/m² -

* Rain latest hour (hover to see other rain measurements)
** Current wind speed in m/s (hover to see current wind gust speed)